Regional Weather Roundup
Issued by NWS

Home | Current Version | Previous Version | Graphics & Text | Print | Product List | Glossary Off
Versions: 1 2 3 4 5 6 7 8 9 10 11 12 13 14 15 16 17 18 19 20 21 22 23 24 25 26 27 28 29 30 31 32 33 34 35 36 37 38 39 40 41 42 43 44 45 46 47 48 49 50

000
ASUS43 KLSX 262157
RWRMO

WEATHER SUMMARY FOR MISSOURI
NATIONAL WEATHER SERVICE SPRINGFIELD MO
500 PM CDT THU APR 26 2018

NOTE: "FAIR" INDICATES FEW OR NO CLOUDS BELOW 12,000 FEET WITH NO
       SIGNIFICANT WEATHER AND/OR OBSTRUCTIONS TO VISIBILITY.
       CURRENT SKY AND/OR WEATHER CONDITIONS ARE NOT AVAILABLE FOR
       CHILLICOTHE AND FARMINGTON.

MOZ001>031-035>038-043-044-053-054-262300-
...NORTHERN AND WESTERN MISSOURI...

CITY           SKY/WX    TMP DP  RH WIND       PRES   REMARKS
KANSAS CTY INT PTSUNNY   68  45  43 W8G20     29.94F
LEE`S SUMMIT   MOSUNNY   66  44  45 W8        29.94F
ST JOSEPH      SUNNY     69  41  36 W6        29.94S
CHILLICOTHE      N/A     71  39  31 MISG      29.92F

$$
MOZ066>068-077>081-088>096-101>105-262300-
...SOUTHWEST MISSOURI...

CITY           SKY/WX    TMP DP  RH WIND       PRES   REMARKS
SPRINGFIELD    CLOUDY    63  47  55 CALM      29.96F
JOPLIN         MOSUNNY   61  49  64 CALM      29.98F
BRANSON        CLOUDY    59  48  67 NW9       29.98F

$$
MOZ032>034-039>042-045>050-055>058-069>072-262300-
...CENTRAL MISSOURI...

CITY           SKY/WX    TMP DP  RH WIND       PRES   REMARKS
COLUMBIA       NOT AVBL
JEFFERSON CITY CLOUDY    69  43  38 W13G21    29.91F
ROLLA          CLOUDY    65  45  48 W7        29.93S
SEDALIA        MOSUNNY   68  46  45 W9        29.94F
WARRENSBURG    PTSUNNY   68  43  40 W9        29.93F

$$
MOZ051-052-059>065-262300-
...EAST CENTRAL MISSOURI...

CITY           SKY/WX    TMP DP  RH WIND       PRES   REMARKS
ST LOUIS INTL  PTSUNNY   70  41  34 NW12      29.89F

$$
MOZ072>076-082>087-097>100-106>115-262300-
...SOUTH CENTRAL AND SOUTHEAST MISSOURI...

CITY           SKY/WX    TMP DP  RH WIND       PRES   REMARKS
CAPE GIRARDEAU FAIR      66  45  46 VRB3      29.90S
POPLAR BLUFF   FAIR      66  46  48 NE8       29.90S
WEST PLAINS    CLOUDY    65  46  50 NW10      29.93S

$$



USA.gov is the U.S. government's official web portal to all federal, state and local government web resources and services.